Weather History for Ushuaia, Argentina

Change the Weather History Date:

Saturday, March 23, 2013

  Actual Average Record
Temperature  
Mean Temperature 44 °F -  
Max Temperature 52 °F 50 °F 60 °F (2004)
Min Temperature 36 °F 40 °F 34 °F (2014)
Degree Days  
Heating Degree Days 21    
Moisture  
Dew Point 38 °F    
Average Humidity 73    
Maximum Humidity 93    
Minimum Humidity 58    
Precipitation  
Precipitation 0.01 in - - ()
Sea Level Pressure  
Sea Level Pressure 29.66 in    
Wind  
Wind Speed 6 mph ()    
Max Wind Speed 12 mph    
Max Gust Speed -    
Visibility 8.1 miles    
Events Rain    
Averages and records for this station are not official NWS values.
T = Trace of Precipitation, MM = Missing Value Source: Averaged Metar Reports

Daily Weather History Graph

Daily Weather History Graph

Search for Another Location

Airport:

Trip Planner

Search our weather history database for the weather conditions in past years. The results will help you decide how hot, cold, wet, or windy it might be!

Date:

Astronomy

Mar. 23, 2013 Rise Set
Actual Time 7:40 AM ART 7:37 PM ART
Civil Twilight 7:04 AM ART 8:13 PM ART
Nautical Twilight 6:22 AM ART 8:55 PM ART
Astronomical Twilight 5:37 AM ART 9:40 PM ART
Moon 5:48 PM ART (3/23) 3:08 AM ART (3/23)
Length of Visible Light 13h 08m
Length of Day
11h 56m
Waxing Gibbous, 84% of the Moon is Illuminated
Mar 23
Waxing Gibbous
Mar 27
Full
Apr 3
Last Quarter
Apr 10
New
Apr 18
First Quarter

Hourly Weather History & Observations

Time (ART) Temp. Windchill Dew Point Humidity Pressure Visibility Wind Dir Wind Speed Gust Speed Precip Events Conditions
1:00 AM 44.6 °F 38.8 °F 35.6 °F 71% 29.86 in 6.2 mi WNW 11.5 mph - N/A   Scattered Clouds
2:00 AM 42.8 °F 38.6 °F 35.6 °F 76% 29.86 in 6.2 mi NW 6.9 mph - N/A   Partly Cloudy
3:00 AM 41 °F - 36 °F 74% 29.84 in 19 mi North 10.4 mph - -   Partly Cloudy
3:00 AM 41.0 °F 34.7 °F 35.6 °F 81% 29.83 in 6.2 mi North 10.4 mph - N/A   Partly Cloudy
5:00 AM 39.2 °F 33.0 °F 33.8 °F 81% 29.83 in 6.2 mi NW 9.2 mph - N/A   Partly Cloudy
6:00 AM 39.2 °F 33.0 °F 35.6 °F 87% 29.80 in 6.2 mi NW 9.2 mph - N/A   Partly Cloudy
7:00 AM 37.4 °F 30.8 °F 35.6 °F 93% 29.77 in 6.2 mi NNW 9.2 mph - N/A   Partly Cloudy
8:00 AM 37.4 °F 33.8 °F 35.6 °F 93% 29.74 in 6.2 mi North 4.6 mph - N/A   Partly Cloudy
9:00 AM 40 °F - 34 °F 72% 29.73 in 19 mi East 5.8 mph - -   Scattered Clouds
9:00 AM 39.2 °F 35.0 °F 33.8 °F 81% 29.71 in 6.2 mi East 5.8 mph - N/A   Mostly Cloudy
10:00 AM 41.0 °F 39.0 °F 35.6 °F 81% 29.68 in 6.2 mi North 3.5 mph - N/A   Mostly Cloudy
11:00 AM 44.6 °F - 37.4 °F 76% 29.68 in 6.2 mi Calm Calm - N/A   Overcast
12:00 PM 46.4 °F 42.9 °F 35.6 °F 66% 29.65 in 6.2 mi SE 6.9 mph - N/A   Overcast
1:00 PM 48.2 °F - 35.6 °F 62% - 6.2 mi SE 8.1 mph - N/A   Overcast
2:00 PM 48.2 °F - 37.4 °F 66% - 6.2 mi SE 10.4 mph - N/A   Overcast
3:00 PM 49 °F - 39 °F 58% 29.59 in 16 mi SE 6.9 mph - - Rain Light Drizzle
3:00 PM 50.0 °F - 39.2 °F 66% - 6.2 mi SE 6.9 mph - N/A   Light Drizzle
4:00 PM 50.0 °F - 41.0 °F 71% - 6.2 mi Calm Calm - N/A   Light Drizzle
5:00 PM 51.8 °F - 39.2 °F 62% - 6.2 mi Calm Calm - N/A   Mostly Cloudy
6:00 PM 50.0 °F - 41.0 °F 71% - 6.2 mi SSE 3.5 mph - N/A   Mostly Cloudy
7:00 PM 51.8 °F - 39.2 °F 62% 29.47 in 6.2 mi North 4.6 mph - N/A   Mostly Cloudy
8:00 PM 50.0 °F - 41.0 °F 71% 29.44 in 6.2 mi NW 5.8 mph - N/A   Mostly Cloudy
9:00 PM 50 °F - 43 °F 68% 29.44 in 19 mi Calm Calm - -   Partly Cloudy
9:00 PM 50.0 °F - 42.8 °F 76% 29.42 in 6.2 mi Calm Calm - N/A   Mostly Cloudy
10:00 PM 51.8 °F - 42.8 °F 71% 29.42 in 6.2 mi NW 4.6 mph - N/A   Mostly Cloudy
11:00 PM 51.8 °F - 42.8 °F 71% 29.39 in 6.2 mi NW 4.6 mph - N/A   Mostly Cloudy